Вернуться в каталог

STARLINK-31635

АктивенСвязьVLEO
NORAD 59511·PAYLOAD·🇺🇸 United States

Запущен Apr 17, 2024 с Cape Canaveral Space Force Station

Loading…

Ближайшие Пролёты (ближайшие 24 часа)

TLE

СвежийSource: CelesTrak SupGP

Эпоха: Sep 15, 2026, 03:00 UTC

1 59511C 24073A   26258.12548611  .00047298  00000+0  17130-2 0  2589
2 59511  43.0014 327.8186 0001649 261.3160  29.8211 15.27557406    15

Отслеживайте STARLINK-31635 в реальном времени с AllMySat

Download on the App Store